Year,Month,Day,Hour,Minute,Value (Times are PST for temperature in C)
2006,08,12,00,00,12.60
2006,08,12,00,01,12.60
2006,08,12,00,02,12.50
2006,08,12,00,03,12.50
2006,08,12,00,04,12.40
2006,08,12,00,05,12.40
2006,08,12,00,06,12.40
2006,08,12,00,07,12.30
2006,08,12,00,08,12.30
2006,08,12,00,09,12.30
2006,08,12,00,10,12.30
2006,08,12,00,11,12.30
2006,08,12,00,12,12.30
2006,08,12,00,13,12.30
2006,08,12,00,14,12.20
2006,08,12,00,15,12.20
2006,08,12,00,16,12.20
2006,08,12,00,17,12.20
2006,08,12,00,18,12.20
2006,08,12,00,19,12.20
2006,08,12,00,20,12.10
2006,08,12,00,21,12.10
2006,08,12,00,22,12.10
2006,08,12,00,23,12.10
2006,08,12,00,24,12.10
2006,08,12,00,25,12.10
2006,08,12,00,26,12.00
2006,08,12,00,27,12.00
2006,08,12,00,28,12.00
2006,08,12,00,29,12.00
2006,08,12,00,30,12.00
2006,08,12,00,31,12.00
2006,08,12,00,32,12.00
2006,08,12,00,33,11.90
2006,08,12,00,34,11.90
2006,08,12,00,35,11.90
2006,08,12,00,36,11.90
2006,08,12,00,37,11.90
2006,08,12,00,38,11.90
2006,08,12,00,39,11.90
2006,08,12,00,40,11.90
2006,08,12,00,41,11.90
2006,08,12,00,42,11.90
2006,08,12,00,43,11.90
2006,08,12,00,44,11.90
2006,08,12,00,45,11.90
2006,08,12,00,46,11.90
2006,08,12,00,47,11.90
2006,08,12,00,48,11.90
2006,08,12,00,49,11.90
2006,08,12,00,50,11.90
2006,08,12,00,51,11.80
2006,08,12,00,52,11.80
2006,08,12,00,53,11.80
2006,08,12,00,54,11.80
2006,08,12,00,55,11.80
2006,08,12,00,56,11.80
2006,08,12,00,57,11.80
2006,08,12,00,58,11.80
2006,08,12,00,59,11.80
2006,08,12,01,00,11.80
2006,08,12,01,01,11.80
2006,08,12,01,02,11.80
2006,08,12,01,03,11.80
2006,08,12,01,04,11.80
2006,08,12,01,05,11.80
2006,08,12,01,06,11.80
2006,08,12,01,07,11.80
2006,08,12,01,08,11.80
2006,08,12,01,09,11.80
2006,08,12,01,10,11.80
2006,08,12,01,11,11.80
2006,08,12,01,12,11.80
2006,08,12,01,13,11.80
2006,08,12,01,14,11.80
2006,08,12,01,15,11.80
2006,08,12,01,16,11.70
2006,08,12,01,17,11.70
2006,08,12,01,18,11.70
2006,08,12,01,19,11.70
2006,08,12,01,20,11.70
2006,08,12,01,21,11.70
2006,08,12,01,22,11.60
2006,08,12,01,23,11.60
2006,08,12,01,24,11.60
2006,08,12,01,25,11.60
2006,08,12,01,26,11.60
2006,08,12,01,27,11.60
2006,08,12,01,28,11.60
2006,08,12,01,29,11.60
2006,08,12,01,30,11.60
2006,08,12,01,31,11.60
2006,08,12,01,32,11.60
2006,08,12,01,33,11.60
2006,08,12,01,34,11.60
2006,08,12,01,35,11.60
2006,08,12,01,36,11.60
2006,08,12,01,37,11.60
2006,08,12,01,38,11.60
2006,08,12,01,39,11.60
2006,08,12,01,40,11.60
2006,08,12,01,41,11.60
2006,08,12,01,42,11.60
2006,08,12,01,43,11.60
2006,08,12,01,44,11.60
2006,08,12,01,45,11.60
2006,08,12,01,46,11.70
2006,08,12,01,47,11.70
2006,08,12,01,48,11.70
2006,08,12,01,49,11.70
2006,08,12,01,50,11.70
2006,08,12,01,51,11.70
2006,08,12,01,52,11.70
2006,08,12,01,53,11.80
2006,08,12,01,54,11.80
2006,08,12,01,55,11.80
2006,08,12,01,56,11.80
2006,08,12,01,57,11.80
2006,08,12,01,58,11.80
2006,08,12,01,59,11.80
2006,08,12,02,00,11.80
2006,08,12,02,01,11.80
2006,08,12,02,02,11.80
2006,08,12,02,03,11.80
2006,08,12,02,04,11.80
2006,08,12,02,05,11.90
2006,08,12,02,06,11.90
2006,08,12,02,07,11.90
2006,08,12,02,08,11.90
2006,08,12,02,09,11.90
2006,08,12,02,10,11.90
2006,08,12,02,11,11.90
2006,08,12,02,12,11.90
2006,08,12,02,13,11.90
2006,08,12,02,14,11.90
2006,08,12,02,15,11.90
2006,08,12,02,16,11.90
2006,08,12,02,17,11.90
2006,08,12,02,18,11.80
2006,08,12,02,19,11.80
2006,08,12,02,20,11.80
2006,08,12,02,21,11.80
2006,08,12,02,22,11.80
2006,08,12,02,23,11.80
2006,08,12,02,24,11.80
2006,08,12,02,25,11.80
2006,08,12,02,26,11.80
2006,08,12,02,27,11.80
2006,08,12,02,28,11.80
2006,08,12,02,29,11.80
2006,08,12,02,30,11.80
2006,08,12,02,31,11.80
2006,08,12,02,32,11.80
2006,08,12,02,33,11.80
2006,08,12,02,34,11.80
2006,08,12,02,35,11.80
2006,08,12,02,36,11.80
2006,08,12,02,37,11.80
2006,08,12,02,38,11.80
2006,08,12,02,39,11.80
2006,08,12,02,40,11.80
2006,08,12,02,41,11.80
2006,08,12,02,42,11.80
2006,08,12,02,43,11.80
2006,08,12,02,44,11.80
2006,08,12,02,45,11.80
2006,08,12,02,46,11.80
2006,08,12,02,47,11.80
2006,08,12,02,48,11.80
2006,08,12,02,49,11.80
2006,08,12,02,50,11.80
2006,08,12,02,51,11.80
2006,08,12,02,52,11.80
2006,08,12,02,53,11.80
2006,08,12,02,54,11.90
2006,08,12,02,55,11.90
2006,08,12,02,56,11.90
2006,08,12,02,57,11.90
2006,08,12,02,58,11.90
2006,08,12,02,59,11.90
2006,08,12,03,00,11.90
2006,08,12,03,01,11.90
2006,08,12,03,02,11.90
2006,08,12,03,03,11.90
2006,08,12,03,04,11.90
2006,08,12,03,05,11.90
2006,08,12,03,06,11.90
2006,08,12,03,07,11.90
2006,08,12,03,08,11.90
2006,08,12,03,09,11.90
2006,08,12,03,10,11.90
2006,08,12,03,11,11.90
2006,08,12,03,12,11.90
2006,08,12,03,13,11.90
2006,08,12,03,14,11.90
2006,08,12,03,15,11.90
2006,08,12,03,16,11.80
2006,08,12,03,17,11.80
2006,08,12,03,18,11.80
2006,08,12,03,19,11.80
2006,08,12,03,20,11.80
2006,08,12,03,21,11.80
2006,08,12,03,22,11.70
2006,08,12,03,23,11.70
2006,08,12,03,24,11.70
2006,08,12,03,25,11.70
2006,08,12,03,26,11.70
2006,08,12,03,27,11.60
2006,08,12,03,28,11.60
2006,08,12,03,29,11.60
2006,08,12,03,30,11.60
2006,08,12,03,31,11.40
2006,08,12,03,32,11.40
2006,08,12,03,33,11.40
2006,08,12,03,34,11.40
2006,08,12,03,35,11.40
2006,08,12,03,36,11.40
2006,08,12,03,37,11.40
2006,08,12,03,38,11.40
2006,08,12,03,39,11.40
2006,08,12,03,40,11.30
2006,08,12,03,41,11.30
2006,08,12,03,42,11.30
2006,08,12,03,43,11.20
2006,08,12,03,44,11.20
2006,08,12,03,45,11.20
2006,08,12,03,46,11.20
2006,08,12,03,47,11.20
2006,08,12,03,48,11.20
2006,08,12,03,49,11.20
2006,08,12,03,50,11.20
2006,08,12,03,51,11.20
2006,08,12,03,52,11.20
2006,08,12,03,53,11.20
2006,08,12,03,54,11.10
2006,08,12,03,55,11.10
2006,08,12,03,56,11.10
2006,08,12,03,57,11.10
2006,08,12,03,58,11.10
2006,08,12,03,59,11.10
2006,08,12,04,00,11.10
2006,08,12,04,01,11.10
2006,08,12,04,02,11.10
2006,08,12,04,03,11.10
2006,08,12,04,04,11.10
2006,08,12,04,05,11.10
2006,08,12,04,06,11.10
2006,08,12,04,07,11.10
2006,08,12,04,08,11.10
2006,08,12,04,09,11.10
2006,08,12,04,10,11.10
2006,08,12,04,11,11.10
2006,08,12,04,12,11.00
2006,08,12,04,13,10.90
2006,08,12,04,14,10.90
2006,08,12,04,15,10.90
2006,08,12,04,16,10.90
2006,08,12,04,17,10.90
2006,08,12,04,18,10.90
2006,08,12,04,19,10.90
2006,08,12,04,20,10.90
2006,08,12,04,21,10.90
2006,08,12,04,22,10.90
2006,08,12,04,23,10.90
2006,08,12,04,24,10.90
2006,08,12,04,25,10.90
2006,08,12,04,26,10.80
2006,08,12,04,27,10.80
2006,08,12,04,28,10.80
2006,08,12,04,29,10.80
2006,08,12,04,30,10.80
2006,08,12,04,31,10.80
2006,08,12,04,32,10.80
2006,08,12,04,33,10.80
2006,08,12,04,34,10.80
2006,08,12,04,35,10.70
2006,08,12,04,36,10.70
2006,08,12,04,37,10.70
2006,08,12,04,38,10.70
2006,08,12,04,39,10.70
2006,08,12,04,40,10.70
2006,08,12,04,41,10.70
2006,08,12,04,42,10.70
2006,08,12,04,43,10.70
2006,08,12,04,44,10.70
2006,08,12,04,45,10.70
2006,08,12,04,46,10.70
2006,08,12,04,47,10.70
2006,08,12,04,48,10.80
2006,08,12,04,49,10.80
2006,08,12,04,50,10.80
2006,08,12,04,51,10.90
2006,08,12,04,52,10.90
2006,08,12,04,53,10.90
2006,08,12,04,54,10.90
2006,08,12,04,55,10.90
2006,08,12,04,56,10.90
2006,08,12,04,57,10.90
2006,08,12,04,58,10.90
2006,08,12,04,59,10.90
2006,08,12,05,00,10.90
2006,08,12,05,01,11.00
2006,08,12,05,02,11.10
2006,08,12,05,03,11.10
2006,08,12,05,04,11.00
2006,08,12,05,05,10.90
2006,08,12,05,06,10.90
2006,08,12,05,07,10.90
2006,08,12,05,08,10.90
2006,08,12,05,09,10.90
2006,08,12,05,10,10.90
2006,08,12,05,11,10.90
2006,08,12,05,12,10.90
2006,08,12,05,13,10.90
2006,08,12,05,14,10.80
2006,08,12,05,15,10.80
2006,08,12,05,16,10.80
2006,08,12,05,17,10.80
2006,08,12,05,18,10.80
2006,08,12,05,19,10.90
2006,08,12,05,20,10.90
2006,08,12,05,21,10.90
2006,08,12,05,22,10.90
2006,08,12,05,23,10.80
2006,08,12,05,24,10.80
2006,08,12,05,25,10.80
2006,08,12,05,26,10.80
2006,08,12,05,27,10.80
2006,08,12,05,28,10.80
2006,08,12,05,29,10.80
2006,08,12,05,30,10.80
2006,08,12,05,31,10.80
2006,08,12,05,32,10.80
2006,08,12,05,33,10.80
2006,08,12,05,34,10.80
2006,08,12,05,35,10.80
2006,08,12,05,36,10.80
2006,08,12,05,37,10.80
2006,08,12,05,38,10.80
2006,08,12,05,39,10.80
2006,08,12,05,40,10.80
2006,08,12,05,41,10.80
2006,08,12,05,42,10.80
2006,08,12,05,43,10.80
2006,08,12,05,44,10.80
2006,08,12,05,45,10.80
2006,08,12,05,46,10.80
2006,08,12,05,47,10.80
2006,08,12,05,48,10.80
2006,08,12,05,49,10.70
2006,08,12,05,50,10.70
2006,08,12,05,51,10.70
2006,08,12,05,52,10.70
2006,08,12,05,53,10.70
2006,08,12,05,54,10.60
2006,08,12,05,55,10.60
2006,08,12,05,56,10.60
2006,08,12,05,57,10.60
2006,08,12,05,58,10.60
2006,08,12,05,59,10.60
2006,08,12,06,00,10.60
2006,08,12,06,01,10.60
2006,08,12,06,02,10.60
2006,08,12,06,03,10.60
2006,08,12,06,04,10.60
2006,08,12,06,05,10.60
2006,08,12,06,06,10.60
2006,08,12,06,07,10.60
2006,08,12,06,08,10.60
2006,08,12,06,09,10.60
2006,08,12,06,10,10.60
2006,08,12,06,11,10.60
2006,08,12,06,12,10.60
2006,08,12,06,13,10.60
2006,08,12,06,14,10.60
2006,08,12,06,15,10.60
2006,08,12,06,16,10.60
2006,08,12,06,17,10.60
2006,08,12,06,18,10.60
2006,08,12,06,19,10.60
2006,08,12,06,20,10.60
2006,08,12,06,21,10.60
2006,08,12,06,22,10.60
2006,08,12,06,23,10.60
2006,08,12,06,24,10.60
2006,08,12,06,25,10.60
2006,08,12,06,26,10.60
2006,08,12,06,27,10.60
2006,08,12,06,28,10.40
2006,08,12,06,29,10.40
2006,08,12,06,30,10.40
2006,08,12,06,31,10.40
2006,08,12,06,32,10.40
2006,08,12,06,33,10.40
2006,08,12,06,34,10.40
2006,08,12,06,35,10.30
2006,08,12,06,36,10.30
2006,08,12,06,37,10.30
2006,08,12,06,38,10.30
2006,08,12,06,39,10.20
2006,08,12,06,40,10.20
2006,08,12,06,41,10.20
2006,08,12,06,42,10.20
2006,08,12,06,43,10.20
2006,08,12,06,44,10.20
2006,08,12,06,45,10.30
2006,08,12,06,46,10.30
2006,08,12,06,47,10.30
2006,08,12,06,48,10.40
2006,08,12,06,49,10.40
2006,08,12,06,50,10.40
2006,08,12,06,51,10.40
2006,08,12,06,52,10.50
2006,08,12,06,53,10.60
2006,08,12,06,54,10.60
2006,08,12,06,55,10.60
2006,08,12,06,56,10.70
2006,08,12,06,57,10.70
2006,08,12,06,58,10.70
2006,08,12,06,59,10.70
2006,08,12,07,00,10.80
2006,08,12,07,01,10.80
2006,08,12,07,02,10.90
2006,08,12,07,03,10.90
2006,08,12,07,04,10.90
2006,08,12,07,05,11.00
2006,08,12,07,06,11.10
2006,08,12,07,07,11.10
2006,08,12,07,08,11.20
2006,08,12,07,09,11.30
2006,08,12,07,10,11.30
2006,08,12,07,11,11.40
2006,08,12,07,12,11.40
2006,08,12,07,13,11.40
2006,08,12,07,14,11.50
2006,08,12,07,15,11.60
2006,08,12,07,16,11.60
2006,08,12,07,17,11.70
2006,08,12,07,18,11.70
2006,08,12,07,19,11.80
2006,08,12,07,20,11.80
2006,08,12,07,21,11.80
2006,08,12,07,22,11.80
2006,08,12,07,23,11.80
2006,08,12,07,24,11.90
2006,08,12,07,25,11.90
2006,08,12,07,26,12.00
2006,08,12,07,27,12.10
2006,08,12,07,28,12.20
2006,08,12,07,29,12.30
2006,08,12,07,30,12.30
2006,08,12,07,31,12.40
2006,08,12,07,32,12.50
2006,08,12,07,33,12.60
2006,08,12,07,34,12.60
2006,08,12,07,35,12.70
2006,08,12,07,36,12.80
2006,08,12,07,37,12.80
2006,08,12,07,38,12.80
2006,08,12,07,39,12.80
2006,08,12,07,40,12.80
2006,08,12,07,41,12.80
2006,08,12,07,42,12.70
2006,08,12,07,43,12.70
2006,08,12,07,44,12.70
2006,08,12,07,45,12.70
2006,08,12,07,46,12.70
2006,08,12,07,47,12.80
2006,08,12,07,48,12.80
2006,08,12,07,49,12.80
2006,08,12,07,50,12.80
2006,08,12,07,51,12.90
2006,08,12,07,52,12.90
2006,08,12,07,53,13.00
2006,08,12,07,54,13.10
2006,08,12,07,55,13.20
2006,08,12,07,56,13.30
2006,08,12,07,57,13.40
2006,08,12,07,58,13.50
2006,08,12,07,59,13.50
2006,08,12,08,00,13.50
2006,08,12,08,01,13.60
2006,08,12,08,02,13.60
2006,08,12,08,03,13.70
2006,08,12,08,04,13.70
2006,08,12,08,05,13.70
2006,08,12,08,06,13.90
2006,08,12,08,07,14.00
2006,08,12,08,08,14.00
2006,08,12,08,09,14.10
2006,08,12,08,10,14.20
2006,08,12,08,11,14.20
2006,08,12,08,12,14.20
2006,08,12,08,13,14.20
2006,08,12,08,14,14.30
2006,08,12,08,15,14.40
2006,08,12,08,16,14.50
2006,08,12,08,17,14.50
2006,08,12,08,18,14.50
2006,08,12,08,19,14.60
2006,08,12,08,20,14.60
2006,08,12,08,21,14.60
2006,08,12,08,22,14.60
2006,08,12,08,23,14.60
2006,08,12,08,24,14.60
2006,08,12,08,25,14.60
2006,08,12,08,26,14.60
2006,08,12,08,27,14.70
2006,08,12,08,28,14.70
2006,08,12,08,29,14.70
2006,08,12,08,30,14.70
2006,08,12,08,31,14.70
2006,08,12,08,32,14.70
2006,08,12,08,33,14.80
2006,08,12,08,34,14.80
2006,08,12,08,35,14.80
2006,08,12,08,36,14.80
2006,08,12,08,37,14.80
2006,08,12,08,38,14.90
2006,08,12,08,39,14.90
2006,08,12,08,40,14.90
2006,08,12,08,41,15.00
2006,08,12,08,42,15.00
2006,08,12,08,43,15.10
2006,08,12,08,44,15.10
2006,08,12,08,45,15.20
2006,08,12,08,46,15.20
2006,08,12,08,47,15.30
2006,08,12,08,48,15.30
2006,08,12,08,49,15.30
2006,08,12,08,50,15.30
2006,08,12,08,51,15.30
2006,08,12,08,52,15.30
2006,08,12,08,53,15.30
2006,08,12,08,54,15.30
2006,08,12,08,55,15.30
2006,08,12,08,56,15.30
2006,08,12,08,57,15.30
2006,08,12,08,58,15.40
2006,08,12,08,59,15.40
2006,08,12,09,00,15.40
2006,08,12,09,01,15.50
2006,08,12,09,02,15.50
2006,08,12,09,03,15.50
2006,08,12,09,04,15.50
2006,08,12,09,05,15.60
2006,08,12,09,06,15.60
2006,08,12,09,07,15.70
2006,08,12,09,08,15.70
2006,08,12,09,09,15.70
2006,08,12,09,10,15.80
2006,08,12,09,11,15.80
2006,08,12,09,12,15.80
2006,08,12,09,13,15.90
2006,08,12,09,14,15.90
2006,08,12,09,15,16.00
2006,08,12,09,16,16.10
2006,08,12,09,17,16.10
2006,08,12,09,18,16.10
2006,08,12,09,19,16.20
2006,08,12,09,20,16.20
2006,08,12,09,21,16.30
2006,08,12,09,22,16.40
2006,08,12,09,23,16.40
2006,08,12,09,24,16.40
2006,08,12,09,25,16.30
2006,08,12,09,26,16.30
2006,08,12,09,27,16.40
2006,08,12,09,28,16.40
2006,08,12,09,29,16.40
2006,08,12,09,30,16.40
2006,08,12,09,31,16.40
2006,08,12,09,32,16.40
2006,08,12,09,33,16.40
2006,08,12,09,34,16.50
2006,08,12,09,35,16.60
2006,08,12,09,36,16.60
2006,08,12,09,37,16.60
2006,08,12,09,38,16.60
2006,08,12,09,39,16.60
2006,08,12,09,40,16.60
2006,08,12,09,41,16.70
2006,08,12,09,42,16.70
2006,08,12,09,43,16.60
2006,08,12,09,44,16.60
2006,08,12,09,45,16.70
2006,08,12,09,46,16.60
2006,08,12,09,47,16.50
2006,08,12,09,48,16.40
2006,08,12,09,49,16.40
2006,08,12,09,50,16.30
2006,08,12,09,51,16.40
2006,08,12,09,52,16.40
2006,08,12,09,53,16.40
2006,08,12,09,54,16.40
2006,08,12,09,55,16.40
2006,08,12,09,56,16.40
2006,08,12,09,57,16.40
2006,08,12,09,58,16.60
2006,08,12,09,59,16.60
2006,08,12,10,00,16.70
2006,08,12,10,01,16.70
2006,08,12,10,02,16.70
2006,08,12,10,03,16.60
2006,08,12,10,04,16.60
2006,08,12,10,05,16.40
2006,08,12,10,06,16.50
2006,08,12,10,07,16.60
2006,08,12,10,08,16.60
2006,08,12,10,09,16.60
2006,08,12,10,10,16.70
2006,08,12,10,11,16.70
2006,08,12,10,12,16.70
2006,08,12,10,13,16.70
2006,08,12,10,14,16.60
2006,08,12,10,15,16.60
2006,08,12,10,16,16.60
2006,08,12,10,17,16.40
2006,08,12,10,18,16.40
2006,08,12,10,19,16.40
2006,08,12,10,20,16.20
2006,08,12,10,21,16.20
2006,08,12,10,22,16.10
2006,08,12,10,23,16.10
2006,08,12,10,24,16.00
2006,08,12,10,25,15.90
2006,08,12,10,26,15.90
2006,08,12,10,27,15.80
2006,08,12,10,28,15.90
2006,08,12,10,29,16.00
2006,08,12,10,30,16.10
2006,08,12,10,31,16.20
2006,08,12,10,32,16.30
2006,08,12,10,33,16.30
2006,08,12,10,34,16.40
2006,08,12,10,35,16.50
2006,08,12,10,36,16.60
2006,08,12,10,37,16.70
2006,08,12,10,38,16.70
2006,08,12,10,39,16.70
2006,08,12,10,40,16.70
2006,08,12,10,41,16.70
2006,08,12,10,42,16.80
2006,08,12,10,43,16.80
2006,08,12,10,44,16.90
2006,08,12,10,45,16.90
2006,08,12,10,46,16.90
2006,08,12,10,47,16.90
2006,08,12,10,48,16.90
2006,08,12,10,49,16.90
2006,08,12,10,50,17.00
2006,08,12,10,51,17.00
2006,08,12,10,52,17.10
2006,08,12,10,53,17.10
2006,08,12,10,54,17.10
2006,08,12,10,55,17.10
2006,08,12,10,56,17.10
2006,08,12,10,57,17.10
2006,08,12,10,58,17.20
2006,08,12,10,59,17.20
2006,08,12,11,00,17.20
2006,08,12,11,01,17.20
2006,08,12,11,02,17.30
2006,08,12,11,03,17.30
2006,08,12,11,04,17.20
2006,08,12,11,05,17.20
2006,08,12,11,06,17.20
2006,08,12,11,07,17.20
2006,08,12,11,08,17.20
2006,08,12,11,09,17.30
2006,08,12,11,10,17.30
2006,08,12,11,11,17.30
2006,08,12,11,12,17.40
2006,08,12,11,13,17.40
2006,08,12,11,14,17.50
2006,08,12,11,15,17.50
2006,08,12,11,16,17.60
2006,08,12,11,17,17.70
2006,08,12,11,18,17.80
2006,08,12,11,19,17.90
2006,08,12,11,20,17.90
2006,08,12,11,21,17.90
2006,08,12,11,22,17.90
2006,08,12,11,23,17.70
2006,08,12,11,24,17.70
2006,08,12,11,25,17.80
2006,08,12,11,26,17.80
2006,08,12,11,27,17.80
2006,08,12,11,28,17.70
2006,08,12,11,29,17.70
2006,08,12,11,30,17.60
2006,08,12,11,31,17.60
2006,08,12,11,32,17.50
2006,08,12,11,33,17.40
2006,08,12,11,34,17.40
2006,08,12,11,35,17.40
2006,08,12,11,36,17.40
2006,08,12,11,37,17.40
2006,08,12,11,38,17.50
2006,08,12,11,39,17.50
2006,08,12,11,40,17.50
2006,08,12,11,41,17.50
2006,08,12,11,42,17.50
2006,08,12,11,43,17.40
2006,08,12,11,44,17.40
2006,08,12,11,45,17.40
2006,08,12,11,46,17.40
2006,08,12,11,47,17.50
2006,08,12,11,48,17.50
2006,08,12,11,49,17.50
2006,08,12,11,50,17.60
2006,08,12,11,51,17.60
2006,08,12,11,52,17.80
2006,08,12,11,53,17.80
2006,08,12,11,54,17.90
2006,08,12,11,55,18.00
2006,08,12,11,56,18.10
2006,08,12,11,57,18.10
2006,08,12,11,58,18.20
2006,08,12,11,59,18.40
2006,08,12,12,00,18.50
2006,08,12,12,01,18.50
2006,08,12,12,02,18.50
2006,08,12,12,03,18.60
2006,08,12,12,04,18.60
2006,08,12,12,05,18.60
2006,08,12,12,06,18.60
2006,08,12,12,07,18.70
2006,08,12,12,08,18.60
2006,08,12,12,09,18.50
2006,08,12,12,10,18.50
2006,08,12,12,11,18.50
2006,08,12,12,12,18.50
2006,08,12,12,13,18.50
2006,08,12,12,14,18.40
2006,08,12,12,15,18.50
2006,08,12,12,16,18.50
2006,08,12,12,17,18.40
2006,08,12,12,18,18.40
2006,08,12,12,19,18.50
2006,08,12,12,20,18.50
2006,08,12,12,21,18.60
2006,08,12,12,22,18.60
2006,08,12,12,23,18.60
2006,08,12,12,24,18.80
2006,08,12,12,25,18.70
2006,08,12,12,26,18.70
2006,08,12,12,27,18.60
2006,08,12,12,28,18.50
2006,08,12,12,29,18.40
2006,08,12,12,30,18.40
2006,08,12,12,31,18.30
2006,08,12,12,32,18.30
2006,08,12,12,33,18.30
2006,08,12,12,34,18.30
2006,08,12,12,35,18.20
2006,08,12,12,36,18.20
2006,08,12,12,37,18.20
2006,08,12,12,38,18.20
2006,08,12,12,39,18.20
2006,08,12,12,40,18.20
2006,08,12,12,41,18.20
2006,08,12,12,42,18.30
2006,08,12,12,43,18.40
2006,08,12,12,44,18.50
2006,08,12,12,45,18.60
2006,08,12,12,46,18.80
2006,08,12,12,47,18.90
2006,08,12,12,48,18.90
2006,08,12,12,49,19.10
2006,08,12,12,50,19.10
2006,08,12,12,51,19.00
2006,08,12,12,52,18.90
2006,08,12,12,53,18.90
2006,08,12,12,54,18.90
2006,08,12,12,55,18.90
2006,08,12,12,56,18.90
2006,08,12,12,57,18.90
2006,08,12,12,58,19.00
2006,08,12,12,59,19.10
2006,08,12,13,00,19.10
2006,08,12,13,01,19.10
2006,08,12,13,02,19.20
2006,08,12,13,03,19.20
2006,08,12,13,04,19.30
2006,08,12,13,05,19.40
2006,08,12,13,06,19.40
2006,08,12,13,07,19.30
2006,08,12,13,08,19.30
2006,08,12,13,09,19.30
2006,08,12,13,10,19.30
2006,08,12,13,11,19.20
2006,08,12,13,12,19.30
2006,08,12,13,13,19.20
2006,08,12,13,14,19.10
2006,08,12,13,15,19.10
2006,08,12,13,16,19.10
2006,08,12,13,17,19.10
2006,08,12,13,18,19.10
2006,08,12,13,19,19.00
2006,08,12,13,20,18.90
2006,08,12,13,21,18.90
2006,08,12,13,22,18.80
2006,08,12,13,23,18.70
2006,08,12,13,24,18.70
2006,08,12,13,25,18.70
2006,08,12,13,26,18.70
2006,08,12,13,27,18.80
2006,08,12,13,28,18.80
2006,08,12,13,29,18.80
2006,08,12,13,30,18.70
2006,08,12,13,31,18.70
2006,08,12,13,32,18.70
2006,08,12,13,33,18.70
2006,08,12,13,34,18.90
2006,08,12,13,35,19.10
2006,08,12,13,36,19.30
2006,08,12,13,37,19.30
2006,08,12,13,38,19.40
2006,08,12,13,39,19.40
2006,08,12,13,40,19.40
2006,08,12,13,41,19.40
2006,08,12,13,42,19.40
2006,08,12,13,43,19.30
2006,08,12,13,44,19.10
2006,08,12,13,45,19.10
2006,08,12,13,46,19.00
2006,08,12,13,47,18.90
2006,08,12,13,48,19.00
2006,08,12,13,49,19.10
2006,08,12,13,50,19.10
2006,08,12,13,51,19.00
2006,08,12,13,52,18.90
2006,08,12,13,53,18.90
2006,08,12,13,54,19.00
2006,08,12,13,55,19.10
2006,08,12,13,56,19.20
2006,08,12,13,57,19.30
2006,08,12,13,58,19.40
2006,08,12,13,59,19.60
2006,08,12,14,00,19.60
2006,08,12,14,01,19.60
2006,08,12,14,02,19.70
2006,08,12,14,03,19.70
2006,08,12,14,04,19.90
2006,08,12,14,05,19.90
2006,08,12,14,06,19.90
2006,08,12,14,07,19.80
2006,08,12,14,08,19.80
2006,08,12,14,09,19.70
2006,08,12,14,10,19.60
2006,08,12,14,11,19.60
2006,08,12,14,12,19.60
2006,08,12,14,13,19.60
2006,08,12,14,14,19.60
2006,08,12,14,15,19.50
2006,08,12,14,16,19.60
2006,08,12,14,17,19.70
2006,08,12,14,18,19.60
2006,08,12,14,19,19.50
2006,08,12,14,20,19.50
2006,08,12,14,21,19.60
2006,08,12,14,22,19.60
2006,08,12,14,23,19.70
2006,08,12,14,24,19.80
2006,08,12,14,25,19.80
2006,08,12,14,26,19.80
2006,08,12,14,27,19.80
2006,08,12,14,28,19.80
2006,08,12,14,29,19.80
2006,08,12,14,30,19.90
2006,08,12,14,31,19.80
2006,08,12,14,32,19.80
2006,08,12,14,33,19.80
2006,08,12,14,34,19.90
2006,08,12,14,35,19.90
2006,08,12,14,36,19.90
2006,08,12,14,37,19.80
2006,08,12,14,38,19.90
2006,08,12,14,39,19.90
2006,08,12,14,40,19.80
2006,08,12,14,41,19.80
2006,08,12,14,42,19.70
2006,08,12,14,43,19.70
2006,08,12,14,44,19.70
2006,08,12,14,45,19.70
2006,08,12,14,46,19.80
2006,08,12,14,47,19.90
2006,08,12,14,48,19.90
2006,08,12,14,49,19.90
2006,08,12,14,50,19.90
2006,08,12,14,51,19.90
2006,08,12,14,52,19.90
2006,08,12,14,53,19.90
2006,08,12,14,54,19.80
2006,08,12,14,55,19.90
2006,08,12,14,56,19.90
2006,08,12,14,57,19.90
2006,08,12,14,58,19.90
2006,08,12,14,59,19.90
2006,08,12,15,00,19.90
2006,08,12,15,01,19.90
2006,08,12,15,02,19.90
2006,08,12,15,03,19.90
2006,08,12,15,04,19.90
2006,08,12,15,05,19.90
2006,08,12,15,06,19.80
2006,08,12,15,07,19.80
2006,08,12,15,08,19.90
2006,08,12,15,09,19.90
2006,08,12,15,10,19.90
2006,08,12,15,11,20.20
2006,08,12,15,12,20.20
2006,08,12,15,13,20.40
2006,08,12,15,14,20.50
2006,08,12,15,15,20.50
2006,08,12,15,16,20.50
2006,08,12,15,17,20.40
2006,08,12,15,18,20.30
2006,08,12,15,19,20.30
2006,08,12,15,20,20.30
2006,08,12,15,21,20.40
2006,08,12,15,22,20.40
2006,08,12,15,23,20.50
2006,08,12,15,24,20.50
2006,08,12,15,25,20.60
2006,08,12,15,26,20.50
2006,08,12,15,27,20.50
2006,08,12,15,28,20.50
2006,08,12,15,29,20.60
2006,08,12,15,30,20.60
2006,08,12,15,31,20.50
2006,08,12,15,32,20.50
2006,08,12,15,33,20.60
2006,08,12,15,34,20.50
2006,08,12,15,35,20.60
2006,08,12,15,36,20.60
2006,08,12,15,37,20.60
2006,08,12,15,38,20.90
2006,08,12,15,39,21.10
2006,08,12,15,40,21.30
2006,08,12,15,41,21.40
2006,08,12,15,42,21.40
2006,08,12,15,43,21.60
2006,08,12,15,44,21.60
2006,08,12,15,45,21.70
2006,08,12,15,46,21.80
2006,08,12,15,47,21.80
2006,08,12,15,48,21.80
2006,08,12,15,49,21.80
2006,08,12,15,50,21.80
2006,08,12,15,51,21.70
2006,08,12,15,52,21.70
2006,08,12,15,53,21.60
2006,08,12,15,54,21.60
2006,08,12,15,55,21.60
2006,08,12,15,56,21.60
2006,08,12,15,57,21.60
2006,08,12,15,58,21.60
2006,08,12,15,59,21.70
2006,08,12,16,00,21.90
2006,08,12,16,01,22.00
2006,08,12,16,02,22.00
2006,08,12,16,03,22.00
2006,08,12,16,04,22.00
2006,08,12,16,05,22.00
2006,08,12,16,06,22.10
2006,08,12,16,07,22.00
2006,08,12,16,08,22.00
2006,08,12,16,09,21.90
2006,08,12,16,10,21.60
2006,08,12,16,11,21.40
2006,08,12,16,12,21.30
2006,08,12,16,13,21.30
2006,08,12,16,14,21.30
2006,08,12,16,15,21.30
2006,08,12,16,16,21.30
2006,08,12,16,17,21.30
2006,08,12,16,18,21.30
2006,08,12,16,19,21.30
2006,08,12,16,20,21.30
2006,08,12,16,21,21.30
2006,08,12,16,22,21.30
2006,08,12,16,23,21.30
2006,08,12,16,24,21.30
2006,08,12,16,25,21.30
2006,08,12,16,26,21.30
2006,08,12,16,27,21.30
2006,08,12,16,28,21.30
2006,08,12,16,29,21.10
2006,08,12,16,30,20.90
2006,08,12,16,31,20.70
2006,08,12,16,32,20.50
2006,08,12,16,33,20.50
2006,08,12,16,34,20.50
2006,08,12,16,35,20.50
2006,08,12,16,36,20.50
2006,08,12,16,37,20.50
2006,08,12,16,38,20.50
2006,08,12,16,39,20.50
2006,08,12,16,40,20.50
2006,08,12,16,41,20.50
2006,08,12,16,42,20.60
2006,08,12,16,43,20.70
2006,08,12,16,44,20.70
2006,08,12,16,45,20.80
2006,08,12,16,46,20.90
2006,08,12,16,47,20.90
2006,08,12,16,48,20.90
2006,08,12,16,49,20.90
2006,08,12,16,50,20.90
2006,08,12,16,51,20.80
2006,08,12,16,52,20.80
2006,08,12,16,53,20.80
2006,08,12,16,54,20.80
2006,08,12,16,55,20.70
2006,08,12,16,56,20.80
2006,08,12,16,57,20.80
2006,08,12,16,58,20.80
2006,08,12,16,59,20.90
2006,08,12,17,00,21.00
2006,08,12,17,01,21.00
2006,08,12,17,02,21.30
2006,08,12,17,03,21.30
2006,08,12,17,04,21.60
2006,08,12,17,05,21.70
2006,08,12,17,06,21.80
2006,08,12,17,07,21.90
2006,08,12,17,08,22.00
2006,08,12,17,09,22.20
2006,08,12,17,10,22.30
2006,08,12,17,11,22.40
2006,08,12,17,12,22.50
2006,08,12,17,13,22.60
2006,08,12,17,14,22.70
2006,08,12,17,15,22.80
2006,08,12,17,16,22.90
2006,08,12,17,17,22.90
2006,08,12,17,18,22.90
2006,08,12,17,19,22.90